• In Netherlands
  • List of Countries
  • For 7 days
  • Water Temperature
  • Satellite Maps
  • Weather Map
  • Weather Widgets
  • user-avatar
    Login

    Hourly Weather Etchmiadzin

    Today, 25 June, Sunday

    Time Temperature Precipitation Wind Pressure Humidity
    00:00 +19°C° 0 mm 2 mps 684 mmHg 73%
    01:00 +19°C° 0 mm 2 mps 684 mmHg 75%
    02:00 +18°C° 0 mm 2 mps 684 mmHg 77%
    03:00 +19°C° 0 mm 2 mps 684 mmHg 76%
    04:00 +20°C° 0.1 mm 2 mps 684 mmHg 74%
    05:00 +20°C° 0.1 mm 2 mps 685 mmHg 72%
    06:00 +22°C° 0.1 mm 1 mps 685 mmHg 70%
    07:00 +24°C° 0.1 mm 2 mps 685 mmHg 60%
    08:00 +26°C° 0.1 mm 2 mps 686 mmHg 50%
    09:00 +28°C° 0.1 mm 2 mps 686 mmHg 40%
    10:00 +29°C° 0.2 mm 2 mps 686 mmHg 38%
    11:00 +30°C° 0.2 mm 2 mps 686 mmHg 35%
    12:00 +31°C° 0.2 mm 2 mps 686 mmHg 32%
    13:00 +31°C° 0.1 mm 2 mps 686 mmHg 31%
    14:00 +32°C° 0.1 mm 2 mps 686 mmHg 29%
    15:00 +32°C° 0.1 mm 2 mps 686 mmHg 27%
    16:00 +32°C° 0.1 mm 2 mps 686 mmHg 30%
    17:00 +31°C° 0.1 mm 2 mps 686 mmHg 33%
    18:00 +30°C° 0.1 mm 2 mps 686 mmHg 36%
    19:00 +27°C° 0.1 mm 2 mps 686 mmHg 44%
    20:00 +25°C° 0.1 mm 2 mps 686 mmHg 52%
    21:00 +21°C° 0.1 mm 2 mps 686 mmHg 60%
    22:00 +20°C° 0 mm 2 mps 686 mmHg 63%
    23:00 +20°C° 0 mm 2 mps 686 mmHg 66%

    Tomorrow, 26 June, Monday

    Time Temperature Precipitation Wind Pressure Humidity
    00:00 +19°C° 0 mm 2 mps 687 mmHg 69%
    01:00 +18°C° 0 mm 2 mps 687 mmHg 70%
    02:00 +19°C° 0 mm 1 mps 687 mmHg 71%
    03:00 +18°C° 0 mm 1 mps 687 mmHg 72%
    04:00 +19°C° 0 mm 1 mps 687 mmHg 69%
    05:00 +20°C° 0 mm 1 mps 687 mmHg 66%
    06:00 +21°C° 0 mm 1 mps 688 mmHg 63%
    07:00 +24°C° 0 mm 1 mps 688 mmHg 55%
    08:00 +26°C° 0 mm 1 mps 688 mmHg 47%
    09:00 +29°C° 0 mm 1 mps 688 mmHg 38%
    10:00 +30°C° 0 mm 1 mps 688 mmHg 35%
    11:00 +31°C° 0 mm 2 mps 688 mmHg 32%
    12:00 +34°C° 0 mm 2 mps 688 mmHg 28%
    13:00 +34°C° 0 mm 2 mps 688 mmHg 27%
    14:00 +35°C° 0 mm 2 mps 688 mmHg 26%
    15:00 +35°C° 0 mm 2 mps 688 mmHg 25%
    16:00 +34°C° 0 mm 2 mps 687 mmHg 28%
    17:00 +32°C° 0 mm 2 mps 687 mmHg 31%
    18:00 +32°C° 0 mm 2 mps 687 mmHg 34%
    19:00 +29°C° 0 mm 2 mps 687 mmHg 43%
    20:00 +27°C° 0 mm 2 mps 687 mmHg 52%
    21:00 +24°C° 0 mm 2 mps 687 mmHg 61%
    22:00 +23°C° 0 mm 2 mps 687 mmHg 65%
    23:00 +23°C° 0 mm 2 mps 687 mmHg 69%

    Day after tomorrow, 27 June, Tuesday

    Time Temperature Precipitation Wind Pressure Humidity
    00:00 +21°C° 0 mm 2 mps 687 mmHg 73%
    01:00 +20°C° 0 mm 2 mps 687 mmHg 75%
    02:00 +21°C° 0 mm 1 mps 687 mmHg 76%
    03:00 +20°C° 0 mm 1 mps 687 mmHg 78%
    04:00 +21°C° 0 mm 1 mps 688 mmHg 74%
    05:00 +22°C° 0 mm 1 mps 688 mmHg 71%
    06:00 +23°C° 0 mm 1 mps 688 mmHg 67%
    07:00 +26°C° 0 mm 1 mps 688 mmHg 57%
    08:00 +28°C° 0 mm 1 mps 688 mmHg 47%
    09:00 +31°C° 0 mm 1 mps 688 mmHg 37%
    10:00 +32°C° 0 mm 1 mps 688 mmHg 33%
    11:00 +35°C° 0 mm 2 mps 688 mmHg 30%
    12:00 +36°C° 0 mm 2 mps 688 mmHg 26%
    13:00 +37°C° 0 mm 2 mps 687 mmHg 24%
    14:00 +38°C° 0 mm 2 mps 687 mmHg 23%
    15:00 +38°C° 0 mm 2 mps 686 mmHg 21%
    16:00 +37°C° 0 mm 2 mps 686 mmHg 25%
    17:00 +35°C° 0 mm 1 mps 686 mmHg 29%
    18:00 +35°C° 0 mm 1 mps 686 mmHg 33%
    19:00 +32°C° 0.1 mm 1 mps 686 mmHg 41%
    20:00 +29°C° 0.1 mm 2 mps 686 mmHg 48%
    21:00 +26°C° 0.1 mm 2 mps 686 mmHg 56%
    22:00 +26°C° 0 mm 2 mps 686 mmHg 60%
    23:00 +25°C° 0 mm 2 mps 686 mmHg 64%

    28 June, Wednesday

    Time Temperature Precipitation Wind Pressure Humidity
    00:00 +24°C° 0 mm 2 mps 686 mmHg 69%
    01:00 +24°C° 0 mm 2 mps 685 mmHg 70%
    02:00 +23°C° 0 mm 2 mps 685 mmHg 71%
    03:00 +23°C° 0 mm 1 mps 685 mmHg 73%
    04:00 +24°C° 0 mm 1 mps 685 mmHg 70%
    05:00 +24°C° 0 mm 1 mps 685 mmHg 67%
    06:00 +25°C° 0 mm 1 mps 686 mmHg 64%
    07:00 +28°C° 0 mm 1 mps 686 mmHg 54%
    08:00 +31°C° 0 mm 1 mps 686 mmHg 44%
    09:00 +33°C° 0 mm 1 mps 686 mmHg 33%
    10:00 +35°C° 0 mm 1 mps 686 mmHg 30%
    11:00 +36°C° 0 mm 1 mps 686 mmHg 26%
    12:00 +39°C° 0 mm 1 mps 686 mmHg 22%
    13:00 +39°C° 0.1 mm 1 mps 685 mmHg 22%
    14:00 +39°C° 0.1 mm 1 mps 685 mmHg 21%
    15:00 +40°C° 0.1 mm 1 mps 684 mmHg 21%
    16:00 +38°C° 0.2 mm 2 mps 684 mmHg 26%
    17:00 +37°C° 0.2 mm 2 mps 684 mmHg 30%
    18:00 +36°C° 0.2 mm 2 mps 684 mmHg 34%
    19:00 +32°C° 0.2 mm 2 mps 684 mmHg 42%
    20:00 +30°C° 0.2 mm 2 mps 684 mmHg 49%
    21:00 +27°C° 0.2 mm 3 mps 684 mmHg 56%
    22:00 +26°C° 0.1 mm 2 mps 684 mmHg 59%
    23:00 +26°C° 0.1 mm 2 mps 684 mmHg 61%

    29 June, Thursday

    Time Temperature Precipitation Wind Pressure Humidity
    00:00 +25°C° 0.1 mm 2 mps 684 mmHg 63%
    01:00 +24°C° 0 mm 2 mps 684 mmHg 65%
    02:00 +24°C° 0 mm 2 mps 684 mmHg 67%
    03:00 +23°C° 0 mm 2 mps 684 mmHg 68%
    04:00 +24°C° 0.1 mm 2 mps 684 mmHg 67%
    05:00 +24°C° 0.1 mm 2 mps 685 mmHg 66%
    06:00 +25°C° 0.1 mm 2 mps 685 mmHg 64%
    07:00 +27°C° 0.1 mm 1 mps 685 mmHg 57%
    08:00 +29°C° 0.1 mm 1 mps 685 mmHg 49%
    09:00 +31°C° 0.1 mm 1 mps 686 mmHg 41%
    10:00 +33°C° 0.3 mm 1 mps 685 mmHg 38%
    11:00 +34°C° 0.3 mm 1 mps 685 mmHg 35%
    12:00 +36°C° 0.3 mm 1 mps 685 mmHg 32%
    13:00 +36°C° 0.4 mm 1 mps 685 mmHg 32%
    14:00 +37°C° 0.4 mm 2 mps 685 mmHg 33%
    15:00 +37°C° 0.4 mm 2 mps 684 mmHg 33%
    16:00 +36°C° 0.4 mm 2 mps 684 mmHg 36%
    17:00 +35°C° 0.4 mm 3 mps 684 mmHg 38%
    18:00 +34°C° 0.4 mm 3 mps 684 mmHg 41%
    19:00 +30°C° 0.4 mm 3 mps 684 mmHg 48%
    20:00 +28°C° 0.4 mm 3 mps 684 mmHg 55%
    21:00 +25°C° 0.4 mm 2 mps 685 mmHg 62%
    22:00 +25°C° 0.2 mm 2 mps 685 mmHg 64%
    23:00 +24°C° 0.2 mm 2 mps 685 mmHg 66%

    30 June, Friday

    Time Temperature Precipitation Wind Pressure Humidity
    00:00 +23°C° 0.2 mm 2 mps 685 mmHg 67%
    01:00 +23°C° 0.1 mm 2 mps 685 mmHg 68%
    02:00 +21°C° 0.1 mm 2 mps 685 mmHg 69%
    03:00 +21°C° 0.1 mm 2 mps 685 mmHg 70%
    04:00 +21°C° 0.1 mm 2 mps 685 mmHg 67%
    05:00 +23°C° 0.1 mm 2 mps 685 mmHg 64%
    06:00 +23°C° 0.1 mm 2 mps 685 mmHg 62%
    07:00 +25°C° 0.1 mm 2 mps 685 mmHg 54%
    08:00 +27°C° 0.1 mm 1 mps 686 mmHg 46%
    09:00 +29°C° 0.1 mm 1 mps 686 mmHg 39%
    10:00 +31°C° 0.1 mm 1 mps 686 mmHg 35%
    11:00 +33°C° 0.1 mm 1 mps 686 mmHg 32%
    12:00 +35°C° 0.1 mm 2 mps 685 mmHg 29%
    13:00 +35°C° 0.1 mm 2 mps 685 mmHg 29%
    14:00 +35°C° 0.1 mm 2 mps 685 mmHg 29%
    15:00 +35°C° 0.1 mm 3 mps 684 mmHg 29%
    16:00 +34°C° 0.2 mm 3 mps 684 mmHg 31%
    17:00 +33°C° 0.2 mm 4 mps 685 mmHg 34%
    18:00 +32°C° 0.2 mm 4 mps 685 mmHg 37%
    19:00 +29°C° 0.2 mm 4 mps 685 mmHg 43%
    20:00 +26°C° 0.2 mm 3 mps 685 mmHg 50%
    21:00 +24°C° 0.2 mm 2 mps 685 mmHg 56%
    22:00 +23°C° 0.1 mm 2 mps 685 mmHg 58%
    23:00 +23°C° 0.1 mm 2 mps 685 mmHg 59%
    Show more